Year,Month,Day,Hour,Minute,Value (Times are PST for insolation in W/m^2)
2012,05,23,00,00,0.00
2012,05,23,00,01,0.00
2012,05,23,00,02,0.00
2012,05,23,00,03,0.00
2012,05,23,00,04,0.00
2012,05,23,00,05,0.00
2012,05,23,00,06,0.00
2012,05,23,00,07,0.00
2012,05,23,00,08,0.00
2012,05,23,00,09,0.00
2012,05,23,00,10,0.00
2012,05,23,00,11,0.00
2012,05,23,00,12,0.00
2012,05,23,00,13,0.00
2012,05,23,00,14,0.00
2012,05,23,00,15,0.00
2012,05,23,00,16,0.00
2012,05,23,00,17,0.00
2012,05,23,00,18,0.00
2012,05,23,00,19,0.00
2012,05,23,00,20,0.00
2012,05,23,00,21,0.00
2012,05,23,00,22,0.00
2012,05,23,00,23,0.00
2012,05,23,00,24,0.00
2012,05,23,00,25,0.00
2012,05,23,00,26,0.00
2012,05,23,00,27,0.00
2012,05,23,00,28,0.00
2012,05,23,00,29,0.00
2012,05,23,00,30,0.00
2012,05,23,00,31,0.00
2012,05,23,00,32,0.00
2012,05,23,00,33,0.00
2012,05,23,00,34,0.00
2012,05,23,00,35,0.00
2012,05,23,00,36,0.00
2012,05,23,00,37,0.00
2012,05,23,00,38,0.00
2012,05,23,00,39,0.00
2012,05,23,00,40,0.00
2012,05,23,00,41,0.00
2012,05,23,00,42,0.00
2012,05,23,00,43,0.00
2012,05,23,00,44,0.00
2012,05,23,00,45,0.00
2012,05,23,00,46,0.00
2012,05,23,00,47,0.00
2012,05,23,00,48,0.00
2012,05,23,00,49,0.00
2012,05,23,00,50,0.00
2012,05,23,00,51,0.00
2012,05,23,00,52,0.00
2012,05,23,00,53,0.00
2012,05,23,00,54,0.00
2012,05,23,00,55,0.00
2012,05,23,00,56,0.00
2012,05,23,00,57,0.00
2012,05,23,00,58,0.00
2012,05,23,00,59,0.00
2012,05,23,01,00,0.00
2012,05,23,01,01,0.00
2012,05,23,01,02,0.00
2012,05,23,01,03,0.00
2012,05,23,01,04,0.00
2012,05,23,01,05,0.00
2012,05,23,01,06,0.00
2012,05,23,01,07,0.00
2012,05,23,01,08,0.00
2012,05,23,01,09,0.00
2012,05,23,01,10,0.00
2012,05,23,01,11,0.00
2012,05,23,01,12,0.00
2012,05,23,01,13,0.00
2012,05,23,01,14,0.00
2012,05,23,01,15,0.00
2012,05,23,01,16,0.00
2012,05,23,01,17,0.00
2012,05,23,01,18,0.00
2012,05,23,01,19,0.00
2012,05,23,01,20,0.00
2012,05,23,01,21,0.00
2012,05,23,01,22,0.00
2012,05,23,01,23,0.00
2012,05,23,01,24,0.00
2012,05,23,01,25,0.00
2012,05,23,01,26,0.00
2012,05,23,01,27,0.00
2012,05,23,01,28,0.00
2012,05,23,01,29,0.00
2012,05,23,01,30,0.00
2012,05,23,01,31,0.00
2012,05,23,01,32,0.00
2012,05,23,01,33,0.00
2012,05,23,01,34,0.00
2012,05,23,01,35,0.00
2012,05,23,01,36,0.00
2012,05,23,01,37,0.00
2012,05,23,01,38,0.00
2012,05,23,01,39,0.00
2012,05,23,01,40,0.00
2012,05,23,01,41,0.00
2012,05,23,01,42,0.00
2012,05,23,01,43,0.00
2012,05,23,01,44,0.00
2012,05,23,01,45,0.00
2012,05,23,01,46,0.00
2012,05,23,01,47,0.00
2012,05,23,01,48,0.00
2012,05,23,01,49,0.00
2012,05,23,01,50,0.00
2012,05,23,01,51,0.00
2012,05,23,01,52,0.00
2012,05,23,01,53,0.00
2012,05,23,01,54,0.00
2012,05,23,01,55,0.00
2012,05,23,01,56,0.00
2012,05,23,01,57,0.00
2012,05,23,01,58,0.00
2012,05,23,01,59,0.00
2012,05,23,02,00,0.00
2012,05,23,02,01,0.00
2012,05,23,02,02,0.00
2012,05,23,02,03,0.00
2012,05,23,02,04,0.00
2012,05,23,02,05,0.00
2012,05,23,02,06,0.00
2012,05,23,02,07,0.00
2012,05,23,02,08,0.00
2012,05,23,02,09,0.00
2012,05,23,02,10,0.00
2012,05,23,02,11,0.00
2012,05,23,02,12,0.00
2012,05,23,02,13,0.00
2012,05,23,02,14,0.00
2012,05,23,02,15,0.00
2012,05,23,02,16,0.00
2012,05,23,02,17,0.00
2012,05,23,02,18,0.00
2012,05,23,02,19,0.00
2012,05,23,02,20,0.00
2012,05,23,02,21,0.00
2012,05,23,02,22,0.00
2012,05,23,02,23,0.00
2012,05,23,02,24,0.00
2012,05,23,02,25,0.00
2012,05,23,02,26,0.00
2012,05,23,02,27,0.00
2012,05,23,02,28,0.00
2012,05,23,02,29,0.00
2012,05,23,02,30,0.00
2012,05,23,02,31,0.00
2012,05,23,02,32,0.00
2012,05,23,02,33,0.00
2012,05,23,02,34,0.00
2012,05,23,02,35,0.00
2012,05,23,02,36,0.00
2012,05,23,02,37,0.00
2012,05,23,02,38,0.00
2012,05,23,02,39,0.00
2012,05,23,02,40,0.00
2012,05,23,02,41,0.00
2012,05,23,02,42,0.00
2012,05,23,02,43,0.00
2012,05,23,02,44,0.00
2012,05,23,02,45,0.00
2012,05,23,02,46,0.00
2012,05,23,02,47,0.00
2012,05,23,02,48,0.00
2012,05,23,02,49,0.00
2012,05,23,02,50,0.00
2012,05,23,02,51,0.00
2012,05,23,02,52,0.00
2012,05,23,02,53,0.00
2012,05,23,02,54,0.00
2012,05,23,02,55,0.00
2012,05,23,02,56,0.00
2012,05,23,02,57,0.00
2012,05,23,02,58,0.00
2012,05,23,02,59,0.00
2012,05,23,03,00,0.00
2012,05,23,03,01,0.00
2012,05,23,03,02,0.00
2012,05,23,03,03,0.00
2012,05,23,04,11,0.00
2012,05,23,04,12,0.00
2012,05,23,04,13,0.00
2012,05,23,04,14,0.00
2012,05,23,04,15,0.00
2012,05,23,04,16,0.00
2012,05,23,04,17,0.00
2012,05,23,04,18,0.00
2012,05,23,04,19,0.00
2012,05,23,04,20,0.00
2012,05,23,04,21,0.00
2012,05,23,04,22,0.00
2012,05,23,04,23,0.00
2012,05,23,04,24,0.00
2012,05,23,04,25,0.00
2012,05,23,04,26,0.00
2012,05,23,04,27,0.00
2012,05,23,04,28,0.00
2012,05,23,04,29,0.00
2012,05,23,04,30,0.00
2012,05,23,04,31,0.00
2012,05,23,04,32,0.00
2012,05,23,04,33,0.00
2012,05,23,04,34,0.00
2012,05,23,04,35,0.00
2012,05,23,04,36,0.00
2012,05,23,04,37,0.00
2012,05,23,04,38,0.00
2012,05,23,04,39,0.00
2012,05,23,04,40,0.00
2012,05,23,04,41,0.00
2012,05,23,04,42,0.00
2012,05,23,04,43,0.00
2012,05,23,04,44,0.00
2012,05,23,04,45,0.00
2012,05,23,04,46,0.00
2012,05,23,04,47,0.00
2012,05,23,04,48,0.00
2012,05,23,04,49,0.00
2012,05,23,04,50,0.00
2012,05,23,04,51,0.00
2012,05,23,04,52,0.00
2012,05,23,04,53,0.00
2012,05,23,04,54,0.00
2012,05,23,04,55,0.00
2012,05,23,04,56,0.00
2012,05,23,04,57,0.00
2012,05,23,04,58,0.00
2012,05,23,04,59,0.00
2012,05,23,05,00,0.00
2012,05,23,05,01,0.00
2012,05,23,05,02,0.00
2012,05,23,05,03,0.00
2012,05,23,05,04,0.00
2012,05,23,05,05,0.00
2012,05,23,05,06,0.00
2012,05,23,05,07,0.00
2012,05,23,05,08,0.00
2012,05,23,05,09,0.00
2012,05,23,05,10,0.00
2012,05,23,05,11,0.00
2012,05,23,05,12,0.00
2012,05,23,05,13,0.00
2012,05,23,05,14,0.00
2012,05,23,05,15,0.00
2012,05,23,05,16,0.00
2012,05,23,05,17,0.00
2012,05,23,05,18,0.00
2012,05,23,05,19,0.00
2012,05,23,05,20,0.00
2012,05,23,05,21,0.00
2012,05,23,05,22,0.00
2012,05,23,05,23,0.00
2012,05,23,05,24,0.00
2012,05,23,05,25,0.00
2012,05,23,05,26,0.00
2012,05,23,05,27,0.00
2012,05,23,05,28,0.00
2012,05,23,05,29,0.00
2012,05,23,05,30,0.00
2012,05,23,05,31,0.00
2012,05,23,05,32,0.00
2012,05,23,05,33,0.00
2012,05,23,05,34,0.00
2012,05,23,05,35,0.00
2012,05,23,05,36,0.00
2012,05,23,05,37,0.00
2012,05,23,05,38,0.50
2012,05,23,05,39,5.00
2012,05,23,05,40,5.00
2012,05,23,05,41,5.00
2012,05,23,05,42,5.60
2012,05,23,05,43,7.00
2012,05,23,05,44,7.00
2012,05,23,05,45,7.90
2012,05,23,05,46,9.00
2012,05,23,05,47,10.00
2012,05,23,05,48,11.00
2012,05,23,05,49,11.00
2012,05,23,05,50,11.00
2012,05,23,05,51,11.70
2012,05,23,05,52,12.00
2012,05,23,05,53,13.50
2012,05,23,05,54,14.00
2012,05,23,05,55,15.70
2012,05,23,05,56,17.80
2012,05,23,05,57,18.90
2012,05,23,05,58,19.00
2012,05,23,05,59,21.10
2012,05,23,06,00,23.10
2012,05,23,06,01,25.00
2012,05,23,06,02,25.20
2012,05,23,06,03,26.50
2012,05,23,06,04,28.50
2012,05,23,06,05,30.00
2012,05,23,06,06,30.00
2012,05,23,06,07,30.80
2012,05,23,06,08,32.00
2012,05,23,06,09,31.00
2012,05,23,06,10,30.00
2012,05,23,06,11,31.10
2012,05,23,06,12,32.00
2012,05,23,06,13,32.00
2012,05,23,06,14,32.70
2012,05,23,06,15,33.00
2012,05,23,06,16,33.00
2012,05,23,06,17,34.60
2012,05,23,06,18,35.00
2012,05,23,06,19,36.80
2012,05,23,06,20,37.00
2012,05,23,06,21,38.90
2012,05,23,06,22,39.00
2012,05,23,06,23,40.00
2012,05,23,06,24,40.30
2012,05,23,06,25,42.40
2012,05,23,06,26,44.00
2012,05,23,06,27,44.00
2012,05,23,06,28,44.60
2012,05,23,06,29,45.30
2012,05,23,06,30,44.00
2012,05,23,06,31,44.00
2012,05,23,06,32,43.10
2012,05,23,06,33,42.00
2012,05,23,06,34,41.00
2012,05,23,06,35,39.40
2012,05,23,06,36,39.00
2012,05,23,06,37,39.00
2012,05,23,06,38,39.00
2012,05,23,06,39,39.80
2012,05,23,06,40,41.60
2012,05,23,06,41,43.70
2012,05,23,06,42,45.80
2012,05,23,06,43,48.70
2012,05,23,06,44,50.90
2012,05,23,06,45,53.00
2012,05,23,06,46,54.20
2012,05,23,06,47,56.60
2012,05,23,06,48,60.50
2012,05,23,06,49,63.50
2012,05,23,06,50,66.10
2012,05,23,06,51,69.30
2012,05,23,06,52,71.30
2012,05,23,06,53,75.10
2012,05,23,06,54,77.90
2012,05,23,06,55,80.00
2012,05,23,06,56,82.00
2012,05,23,06,57,83.60
2012,05,23,06,58,85.20
2012,05,23,06,59,86.00
2012,05,23,07,00,86.00
2012,05,23,07,01,86.00
2012,05,23,07,02,86.00
2012,05,23,07,03,87.60
2012,05,23,07,04,89.70
2012,05,23,07,05,90.90
2012,05,23,07,06,96.40
2012,05,23,07,07,99.90
2012,05,23,07,08,104.00
2012,05,23,07,09,104.00
2012,05,23,07,10,104.00
2012,05,23,07,11,104.00
2012,05,23,07,12,103.50
2012,05,23,07,13,101.50
2012,05,23,07,14,100.00
2012,05,23,07,15,104.70
2012,05,23,07,16,130.00
2012,05,23,07,17,151.70
2012,05,23,07,18,161.70
2012,05,23,07,19,155.40
2012,05,23,07,20,127.90
2012,05,23,07,21,121.30
2012,05,23,07,22,113.20
2012,05,23,07,23,103.00
2012,05,23,07,24,98.60
2012,05,23,07,25,97.20
2012,05,23,07,26,93.80
2012,05,23,07,27,90.40
2012,05,23,07,28,86.40
2012,05,23,07,29,83.30
2012,05,23,07,30,81.10
2012,05,23,07,31,81.00
2012,05,23,07,32,81.00
2012,05,23,07,33,81.00
2012,05,23,07,34,81.00
2012,05,23,07,35,80.50
2012,05,23,07,36,79.00
2012,05,23,07,37,78.40
2012,05,23,07,38,76.70
2012,05,23,07,39,75.20
2012,05,23,07,40,74.00
2012,05,23,07,41,74.00
2012,05,23,07,42,74.00
2012,05,23,07,43,74.00
2012,05,23,07,44,74.00
2012,05,23,07,45,74.00
2012,05,23,07,46,74.00
2012,05,23,07,47,72.60
2012,05,23,07,48,73.50
2012,05,23,07,49,75.60
2012,05,23,07,50,76.00
2012,05,23,07,51,78.70
2012,05,23,07,52,82.60
2012,05,23,07,53,86.00
2012,05,23,07,54,91.30
2012,05,23,07,55,98.70
2012,05,23,07,56,105.90
2012,05,23,07,57,112.00
2012,05,23,07,58,117.00
2012,05,23,07,59,120.00
2012,05,23,08,00,122.00
2012,05,23,08,01,127.00
2012,05,23,08,02,129.70
2012,05,23,08,03,134.40
2012,05,23,08,04,136.00
2012,05,23,08,05,137.00
2012,05,23,08,06,137.00
2012,05,23,08,07,137.00
2012,05,23,08,08,138.20
2012,05,23,08,09,141.00
2012,05,23,08,10,146.30
2012,05,23,08,11,154.10
2012,05,23,08,12,166.50
2012,05,23,08,13,176.70
2012,05,23,08,14,182.50
2012,05,23,08,15,189.30
2012,05,23,08,16,194.80
2012,05,23,08,17,199.60
2012,05,23,08,18,212.30
2012,05,23,08,19,226.00
2012,05,23,08,20,234.70
2012,05,23,08,21,246.00
2012,05,23,08,22,249.00
2012,05,23,08,23,264.60
2012,05,23,08,24,284.00
2012,05,23,08,25,294.20
2012,05,23,08,26,294.10
2012,05,23,08,27,296.00
2012,05,23,08,28,274.00
2012,05,23,08,29,230.90
2012,05,23,08,30,217.00
2012,05,23,08,31,210.90
2012,05,23,08,32,207.00
2012,05,23,08,33,214.60
2012,05,23,08,34,219.50
2012,05,23,08,35,211.10
2012,05,23,08,36,210.70
2012,05,23,08,37,198.30
2012,05,23,08,38,199.90
2012,05,23,08,39,205.70
2012,05,23,08,40,201.80
2012,05,23,08,41,196.80
2012,05,23,08,42,194.60
2012,05,23,08,43,191.60
2012,05,23,08,44,190.00
2012,05,23,08,45,189.00
2012,05,23,08,46,186.00
2012,05,23,08,47,185.70
2012,05,23,08,48,185.00
2012,05,23,08,49,184.10
2012,05,23,08,50,183.00
2012,05,23,08,51,183.00
2012,05,23,08,52,181.90
2012,05,23,08,53,179.90
2012,05,23,08,54,180.20
2012,05,23,08,55,182.30
2012,05,23,08,56,184.40
2012,05,23,08,57,185.80
2012,05,23,08,58,189.20
2012,05,23,08,59,191.70
2012,05,23,09,00,192.00
2012,05,23,09,01,192.90
2012,05,23,09,02,196.80
2012,05,23,09,03,200.20
2012,05,23,09,04,204.50
2012,05,23,09,05,209.30
2012,05,23,09,06,211.00
2012,05,23,09,07,210.50
2012,05,23,09,08,208.50
2012,05,23,09,09,207.60
2012,05,23,09,10,209.70
2012,05,23,09,11,211.80
2012,05,23,09,12,212.10
2012,05,23,09,13,211.00
2012,05,23,09,14,211.00
2012,05,23,09,15,212.10
2012,05,23,09,16,213.00
2012,05,23,09,17,211.80
2012,05,23,09,18,211.00
2012,05,23,09,19,212.40
2012,05,23,09,20,218.30
2012,05,23,09,21,224.00
2012,05,23,09,22,229.30
2012,05,23,09,23,230.00
2012,05,23,09,24,227.10
2012,05,23,09,25,223.20
2012,05,23,09,26,220.00
2012,05,23,09,27,219.80
2012,05,23,09,28,217.70
2012,05,23,09,29,216.00
2012,05,23,09,30,216.00
2012,05,23,09,31,215.50
2012,05,23,09,32,214.00
2012,05,23,09,33,213.70
2012,05,23,09,34,212.20
2012,05,23,09,35,211.00
2012,05,23,09,36,212.00
2012,05,23,09,37,213.00
2012,05,23,09,38,214.60
2012,05,23,09,39,216.00
2012,05,23,09,40,220.30
2012,05,23,09,41,227.00
2012,05,23,09,42,232.60
2012,05,23,09,43,235.50
2012,05,23,09,44,236.00
2012,05,23,09,45,236.90
2012,05,23,09,46,240.60
2012,05,23,09,47,243.90
2012,05,23,09,48,249.70
2012,05,23,09,49,258.30
2012,05,23,09,50,265.90
2012,05,23,09,51,274.70
2012,05,23,09,52,280.50
2012,05,23,09,53,287.70
2012,05,23,09,54,290.50
2012,05,23,09,55,292.00
2012,05,23,09,56,292.70
2012,05,23,09,57,295.10
2012,05,23,09,58,299.10
2012,05,23,09,59,302.00
2012,05,23,10,00,302.00
2012,05,23,10,01,303.10
2012,05,23,10,02,308.20
2012,05,23,10,03,314.10
2012,05,23,10,04,310.70
2012,05,23,10,05,305.10
2012,05,23,10,06,300.20
2012,05,23,10,07,295.00
2012,05,23,10,08,288.90
2012,05,23,10,09,283.50
2012,05,23,10,10,279.40
2012,05,23,10,11,279.00
2012,05,23,10,12,275.80
2012,05,23,10,13,270.80
2012,05,23,10,14,267.20
2012,05,23,10,15,269.90
2012,05,23,10,16,275.20
2012,05,23,10,17,281.00
2012,05,23,10,18,289.00
2012,05,23,10,19,296.70
2012,05,23,10,20,305.40
2012,05,23,10,21,314.90
2012,05,23,10,22,323.30
2012,05,23,10,23,328.00
2012,05,23,10,24,325.70
2012,05,23,10,25,324.10
2012,05,23,10,26,325.00
2012,05,23,10,27,338.30
2012,05,23,10,28,345.00
2012,05,23,10,29,356.40
2012,05,23,10,30,364.90
2012,05,23,10,31,364.30
2012,05,23,10,32,354.10
2012,05,23,10,33,352.10
2012,05,23,10,34,353.00
2012,05,23,10,35,352.90
2012,05,23,10,36,350.50
2012,05,23,10,37,354.00
2012,05,23,10,38,348.00
2012,05,23,10,39,347.00
2012,05,23,10,40,342.50
2012,05,23,10,41,341.60
2012,05,23,10,42,345.30
2012,05,23,10,43,352.70
2012,05,23,10,44,359.10
2012,05,23,10,45,367.70
2012,05,23,10,46,381.30
2012,05,23,10,47,388.00
2012,05,23,10,48,487.60
2012,05,23,10,49,554.60
2012,05,23,10,50,543.70
2012,05,23,10,51,538.00
2012,05,23,10,52,643.90
2012,05,23,10,53,677.00
2012,05,23,10,54,677.00
2012,05,23,10,55,677.00
2012,05,23,10,56,491.80
2012,05,23,10,57,464.90
2012,05,23,10,58,435.70
2012,05,23,10,59,434.00
2012,05,23,11,00,471.90
2012,05,23,11,01,409.20
2012,05,23,11,02,396.50
2012,05,23,11,03,387.20
2012,05,23,11,04,382.40
2012,05,23,11,05,372.00
2012,05,23,11,06,358.70
2012,05,23,11,07,344.90
2012,05,23,11,08,335.30
2012,05,23,11,09,332.00
2012,05,23,11,10,335.30
2012,05,23,11,11,341.00
2012,05,23,11,12,344.90
2012,05,23,11,13,348.70
2012,05,23,11,14,348.60
2012,05,23,11,15,348.00
2012,05,23,11,16,348.00
2012,05,23,11,17,348.00
2012,05,23,11,18,345.30
2012,05,23,11,19,338.70
2012,05,23,11,20,334.20
2012,05,23,11,21,331.90
2012,05,23,11,22,329.50
2012,05,23,11,23,336.00
2012,05,23,11,24,352.00
2012,05,23,11,25,373.60
2012,05,23,11,26,396.90
2012,05,23,11,27,411.50
2012,05,23,11,28,415.00
2012,05,23,11,29,420.30
2012,05,23,11,30,434.10
2012,05,23,11,31,445.30
2012,05,23,11,32,461.00
2012,05,23,11,33,486.40
2012,05,23,11,34,497.30
2012,05,23,11,35,490.40
2012,05,23,11,36,489.00
2012,05,23,11,37,496.40
2012,05,23,11,38,499.00
2012,05,23,11,39,597.80
2012,05,23,11,40,539.60
2012,05,23,11,41,480.10
2012,05,23,11,42,519.30
2012,05,23,11,43,477.30
2012,05,23,11,44,471.60
2012,05,23,11,45,524.00
2012,05,23,11,46,524.00
2012,05,23,11,47,512.00
2012,05,23,11,48,458.40
2012,05,23,11,49,455.50
2012,05,23,11,50,487.70
2012,05,23,11,51,529.00
2012,05,23,11,52,574.00
2012,05,23,11,53,610.40
2012,05,23,11,54,638.80
2012,05,23,11,55,655.00
2012,05,23,11,56,714.40
2012,05,23,11,57,788.30
2012,05,23,11,58,814.00
2012,05,23,11,59,814.00
2012,05,23,12,00,590.40
2012,05,23,12,01,479.70
2012,05,23,12,02,473.00
2012,05,23,12,03,323.90
2012,05,23,12,04,299.00
2012,05,23,12,05,322.50
2012,05,23,12,06,325.00
2012,05,23,12,07,356.60
2012,05,23,12,08,388.00
2012,05,23,12,09,388.00
2012,05,23,12,10,520.80
2012,05,23,12,11,1085.00
2012,05,23,12,12,1085.00
2012,05,23,12,13,885.00
2012,05,23,12,14,372.70
2012,05,23,12,15,339.20
2012,05,23,12,16,320.70
2012,05,23,12,17,312.10
2012,05,23,12,18,309.00
2012,05,23,12,19,313.00
2012,05,23,12,20,332.20
2012,05,23,12,21,338.70
2012,05,23,12,22,338.00
2012,05,23,12,23,339.00
2012,05,23,12,24,333.70
2012,05,23,12,25,330.40
2012,05,23,12,26,330.00
2012,05,23,12,27,352.50
2012,05,23,12,28,363.10
2012,05,23,12,29,395.40
2012,05,23,12,30,412.00
2012,05,23,12,31,712.00
2012,05,23,12,32,712.00
2012,05,23,12,33,712.00
2012,05,23,12,34,712.00
2012,05,23,12,35,712.00
2012,05,23,12,36,620.60
2012,05,23,12,37,368.70
2012,05,23,12,38,330.00
2012,05,23,12,39,343.00
2012,05,23,12,40,343.00
2012,05,23,12,41,343.00
2012,05,23,12,42,343.00
2012,05,23,12,43,343.00
2012,05,23,12,44,343.00
2012,05,23,12,45,485.70
2012,05,23,12,46,557.00
2012,05,23,12,47,557.00
2012,05,23,12,48,557.00
2012,05,23,12,49,791.90
2012,05,23,12,50,849.00
2012,05,23,12,51,851.00
2012,05,23,12,52,935.80
2012,05,23,12,53,940.00
2012,05,23,12,54,940.00
2012,05,23,12,55,940.00
2012,05,23,12,56,855.00
2012,05,23,12,57,494.00
2012,05,23,12,58,550.90
2012,05,23,12,59,711.00
2012,05,23,13,00,670.00
2012,05,23,13,01,698.00
2012,05,23,13,02,698.00
2012,05,23,13,03,698.00
2012,05,23,13,04,698.00
2012,05,23,13,05,698.00
2012,05,23,13,06,698.00
2012,05,23,13,07,708.50
2012,05,23,13,08,675.70
2012,05,23,13,09,656.00
2012,05,23,13,10,629.30
2012,05,23,13,11,616.10
2012,05,23,13,12,645.00
2012,05,23,13,13,650.00
2012,05,23,13,14,1268.90
2012,05,23,13,15,1334.00
2012,05,23,13,16,1329.70
2012,05,23,13,17,1243.00
2012,05,23,13,18,1243.00
2012,05,23,13,19,1243.00
2012,05,23,13,20,1185.60
2012,05,23,13,21,956.00
2012,05,23,13,22,956.00
2012,05,23,13,23,956.00
2012,05,23,13,24,956.00
2012,05,23,13,25,956.00
2012,05,23,13,26,1023.10
2012,05,23,13,27,1097.00
2012,05,23,13,28,1172.30
2012,05,23,13,29,1227.70
2012,05,23,13,30,1211.20
2012,05,23,13,31,1188.70
2012,05,23,13,32,1195.30
2012,05,23,13,33,1204.80
2012,05,23,13,34,1228.70
2012,05,23,13,35,1192.00
2012,05,23,13,36,1185.00
2012,05,23,13,37,1185.00
2012,05,23,13,38,1185.00
2012,05,23,13,39,427.70
2012,05,23,13,40,443.90
2012,05,23,13,41,471.00
2012,05,23,13,42,475.80
2012,05,23,13,43,496.00
2012,05,23,13,44,491.00
2012,05,23,13,45,470.00
2012,05,23,13,46,458.70
2012,05,23,13,47,458.00
2012,05,23,13,48,454.90
2012,05,23,13,49,475.10
2012,05,23,13,50,478.80
2012,05,23,13,51,462.40
2012,05,23,13,52,465.10
2012,05,23,13,53,475.00
2012,05,23,13,54,532.30
2012,05,23,13,55,561.00
2012,05,23,13,56,561.00
2012,05,23,13,57,912.30
2012,05,23,13,58,1050.70
2012,05,23,13,59,1145.50
2012,05,23,14,00,1155.00
2012,05,23,14,01,773.10
2012,05,23,14,02,754.00
2012,05,23,14,03,754.00
2012,05,23,14,04,772.60
2012,05,23,14,05,880.40
2012,05,23,14,06,852.00
2012,05,23,14,07,791.80
2012,05,23,14,08,766.70
2012,05,23,14,09,763.70
2012,05,23,14,10,802.00
2012,05,23,14,11,845.10
2012,05,23,14,12,870.50
2012,05,23,14,13,915.50
2012,05,23,14,14,877.00
2012,05,23,14,15,883.90
2012,05,23,14,16,859.80
2012,05,23,14,17,826.00
2012,05,23,14,18,461.70
2012,05,23,14,19,320.60
2012,05,23,14,20,333.30
2012,05,23,14,21,366.00
2012,05,23,14,22,371.00
2012,05,23,14,23,371.00
2012,05,23,14,24,1057.70
2012,05,23,14,25,1067.00
2012,05,23,14,26,1067.00
2012,05,23,14,27,1067.00
2012,05,23,14,28,936.70
2012,05,23,14,29,383.00
2012,05,23,14,30,383.00
2012,05,23,14,31,383.00
2012,05,23,14,32,383.00
2012,05,23,14,33,650.40
2012,05,23,14,34,1051.60
2012,05,23,14,35,993.70
2012,05,23,14,36,1012.00
2012,05,23,14,37,1017.20
2012,05,23,14,38,1018.10
2012,05,23,14,39,1035.90
2012,05,23,14,40,1024.30
2012,05,23,14,41,1023.00
2012,05,23,14,42,1039.50
2012,05,23,14,43,1030.20
2012,05,23,14,44,1003.90
2012,05,23,14,45,1054.30
2012,05,23,14,46,1060.00
2012,05,23,14,47,1060.00
2012,05,23,14,48,1060.00
2012,05,23,14,49,1060.00
2012,05,23,14,50,1060.00
2012,05,23,14,51,1059.70
2012,05,23,14,52,1067.80
2012,05,23,14,53,1100.20
2012,05,23,14,54,1100.90
2012,05,23,14,55,1084.30
2012,05,23,14,56,1064.30
2012,05,23,14,57,1061.30
2012,05,23,14,58,1062.50
2012,05,23,14,59,1059.90
2012,05,23,15,00,1056.90
2012,05,23,15,01,1056.00
2012,05,23,15,02,1056.00
2012,05,23,15,03,1056.00
2012,05,23,15,04,1035.30
2012,05,23,15,05,1052.10
2012,05,23,15,06,1061.60
2012,05,23,15,07,1075.60
2012,05,23,15,08,1078.00
2012,05,23,15,09,362.30
2012,05,23,15,10,287.00
2012,05,23,15,11,287.00
2012,05,23,15,12,287.00
2012,05,23,15,13,379.60
2012,05,23,15,14,943.00
2012,05,23,15,15,975.60
2012,05,23,15,16,969.80
2012,05,23,15,17,967.90
2012,05,23,15,18,965.00
2012,05,23,15,19,965.00
2012,05,23,15,20,955.10
2012,05,23,15,21,942.00
2012,05,23,15,22,932.00
2012,05,23,15,23,930.70
2012,05,23,15,24,942.70
2012,05,23,15,25,949.50
2012,05,23,15,26,948.30
2012,05,23,15,27,932.00
2012,05,23,15,28,918.40
2012,05,23,15,29,908.70
2012,05,23,15,30,902.80
2012,05,23,15,31,903.70
2012,05,23,15,32,895.50
2012,05,23,15,33,888.30
2012,05,23,15,34,888.50
2012,05,23,15,35,898.90
2012,05,23,15,36,906.70
2012,05,23,15,37,906.70
2012,05,23,15,38,915.00
2012,05,23,15,39,916.10
2012,05,23,15,40,900.40
2012,05,23,15,41,879.30
2012,05,23,15,42,866.60
2012,05,23,15,43,862.70
2012,05,23,15,44,859.80
2012,05,23,15,45,854.00
2012,05,23,15,46,854.00
2012,05,23,15,47,851.10
2012,05,23,15,48,847.10
2012,05,23,15,49,837.30
2012,05,23,15,50,839.40
2012,05,23,15,51,842.00
2012,05,23,15,52,846.00
2012,05,23,15,53,858.00
2012,05,23,15,54,848.90
2012,05,23,15,55,842.50
2012,05,23,15,56,830.60
2012,05,23,15,57,829.80
2012,05,23,15,58,824.50
2012,05,23,15,59,809.90
2012,05,23,16,00,809.00
2012,05,23,16,01,809.20
2012,05,23,16,02,809.80
2012,05,23,16,03,809.00
2012,05,23,16,04,809.00
2012,05,23,16,05,806.70
2012,05,23,16,06,800.00
2012,05,23,16,07,796.00
2012,05,23,16,08,796.00
2012,05,23,16,09,788.30
2012,05,23,16,10,783.10
2012,05,23,16,11,782.80
2012,05,23,16,12,778.70
2012,05,23,16,13,779.10
2012,05,23,16,14,779.20
2012,05,23,16,15,777.40
2012,05,23,16,16,777.00
2012,05,23,16,17,785.10
2012,05,23,16,18,798.70
2012,05,23,16,19,729.50
2012,05,23,16,20,767.10
2012,05,23,16,21,748.80
2012,05,23,16,22,747.00
2012,05,23,16,23,746.10
2012,05,23,16,24,742.00
2012,05,23,16,25,740.80
2012,05,23,16,26,735.90
2012,05,23,16,27,731.30
2012,05,23,16,28,725.70
2012,05,23,16,29,721.60
2012,05,23,16,30,720.00
2012,05,23,16,31,718.00
2012,05,23,16,32,726.90
2012,05,23,16,33,735.00
2012,05,23,16,34,735.00
2012,05,23,16,35,713.70
2012,05,23,16,36,700.90
2012,05,23,16,37,697.00
2012,05,23,16,38,693.60
2012,05,23,16,39,691.30
2012,05,23,16,40,687.60
2012,05,23,16,41,686.10
2012,05,23,16,42,684.10
2012,05,23,16,43,680.00
2012,05,23,16,44,679.70
2012,05,23,16,45,676.70
2012,05,23,16,46,674.20
2012,05,23,16,47,670.80
2012,05,23,16,48,670.00
2012,05,23,16,49,670.00
2012,05,23,16,50,670.00
2012,05,23,16,51,669.20
2012,05,23,16,52,666.30
2012,05,23,16,53,664.00
2012,05,23,16,54,661.40
2012,05,23,16,55,656.20
2012,05,23,16,56,651.70
2012,05,23,16,57,650.00
2012,05,23,16,58,645.30
2012,05,23,16,59,643.00
2012,05,23,17,00,642.20
2012,05,23,17,01,638.80
2012,05,23,17,02,638.00
2012,05,23,17,03,636.20
2012,05,23,17,04,635.10
2012,05,23,17,05,631.20
2012,05,23,17,06,627.80
2012,05,23,17,07,623.80
2012,05,23,17,08,621.90
2012,05,23,17,09,620.20
2012,05,23,17,10,617.00
2012,05,23,17,11,619.10
2012,05,23,17,12,632.90
2012,05,23,17,13,647.70
2012,05,23,17,14,641.90
2012,05,23,17,15,639.10
2012,05,23,17,16,639.00
2012,05,23,17,17,643.70
2012,05,23,17,18,652.00
2012,05,23,17,19,658.90
2012,05,23,17,20,662.20
2012,05,23,17,21,663.00
2012,05,23,17,22,663.00
2012,05,23,17,23,638.60
2012,05,23,17,24,610.00
2012,05,23,17,25,605.90
2012,05,23,17,26,528.60
2012,05,23,17,27,520.00
2012,05,23,17,28,622.90
2012,05,23,17,29,619.00
2012,05,23,17,30,619.00
2012,05,23,17,31,557.70
2012,05,23,17,32,185.20
2012,05,23,17,33,155.00
2012,05,23,17,34,120.80
2012,05,23,17,35,113.70
2012,05,23,17,36,114.00
2012,05,23,17,37,120.60
2012,05,23,17,38,143.90
2012,05,23,17,39,165.00
2012,05,23,17,40,371.40
2012,05,23,17,41,553.00
2012,05,23,17,42,545.10
2012,05,23,17,43,539.90
2012,05,23,17,44,534.70
2012,05,23,17,45,528.00
2012,05,23,17,46,526.00
2012,05,23,17,47,515.50
2012,05,23,17,48,513.00
2012,05,23,17,49,513.00
2012,05,23,17,50,513.00
2012,05,23,17,51,510.10
2012,05,23,17,52,505.70
2012,05,23,17,53,498.50
2012,05,23,17,54,493.30
2012,05,23,17,55,489.00
2012,05,23,17,56,488.60
2012,05,23,17,57,486.00
2012,05,23,17,58,481.60
2012,05,23,17,59,475.70
2012,05,23,18,00,468.50
2012,05,23,18,01,461.00
2012,05,23,18,02,455.60
2012,05,23,18,03,453.00
2012,05,23,18,04,448.70
2012,05,23,18,05,444.30
2012,05,23,18,06,439.90
2012,05,23,18,07,436.70
2012,05,23,18,08,433.10